User: anonymous   Login
Location: Unspecified
(0.0000°N, 0.0000°E)
Time: 11:39:45
(UTC+01:00)
Language:

Cosmos 1072 Rocket - Orbit

View from above orbital plane
View from above orbital plane
View from above satellite
View from above satellite

Ground track
Ground track

The orbit data is extracted from the following two-line orbital elements,

1 11239U 79003B   17015.88626921  .00000101  00000-0  87626-4 0  9996
2 11239  82.9366 201.6068 0041952  98.2104  10.7209 13.75804100906913
Epoch (UTC): 15 January 2017 21:16:13
Eccentricity: 0.0041952
inclination: 82.9366°
perigee height: 948 km
apogee height: 1009 km
right ascension of ascending node: 201.6068°
argument of perigee: 98.2104°
revolutions per day: 13.75804100
mean anomaly at epoch: 10.7209°
orbit number at epoch: 90691

The dashed part of the orbit path shows where the satellite is in the earth's shadow,  

DLR